This is the latest recevied weather packets stored in our database for station/object IZ5MMH-1. If no packets are shown the sender has not sent any weather packets the latest 10 day(s).
| Time | Temp. | Humidity | Pressure | Rain* | Wind** | Luminosity | Snow |
|---|---|---|---|---|---|---|---|
| 1787704487 | 22.22° C | 72% | 1016.2 hPa | - | - | - | - |
| 1787703887 | 22.22° C | 70% | 1016.1 hPa | - | - | - | - |
| 1787703286 | 22.22° C | 71% | 1016 hPa | - | - | - | - |
| 1787702686 | 22.22° C | 71% | 1015.9 hPa | - | - | - | - |
| 1787702087 | 22.22° C | 70% | 1015.9 hPa | - | - | - | - |
| 1787701486 | 22.78° C | 72% | 1015.8 hPa | - | - | - | - |
| 1787700886 | 22.78° C | 70% | 1015.8 hPa | - | - | - | - |
| 1787700286 | 22.78° C | 68% | 1015.7 hPa | - | - | - | - |
| 1787699685 | 23.33° C | 70% | 1015.7 hPa | - | - | - | - |
| 1787699088 | 23.33° C | 68% | 1015.7 hPa | - | - | - | - |
| 1787698486 | 22.78° C | 72% | 1015.7 hPa | - | - | - | - |
| 1787697886 | 22.78° C | 69% | 1015.6 hPa | - | - | - | - |
| 1787697286 | 22.78° C | 69% | 1015.5 hPa | - | - | - | - |
| 1787696687 | 22.78° C | 69% | 1015.5 hPa | - | - | - | - |
| 1787696087 | 23.33° C | 67% | 1015.6 hPa | - | - | - | - |
| 1787695487 | 23.33° C | 67% | 1015.6 hPa | - | - | - | - |
| 1787694885 | 23.33° C | 67% | 1015.6 hPa | - | - | - | - |
| 1787694286 | 23.33° C | 68% | 1015.7 hPa | - | - | - | - |
| 1787693686 | 23.33° C | 67% | 1015.6 hPa | - | - | - | - |
| 1787693085 | 23.33° C | 69% | 1015.6 hPa | - | - | - | - |
| 1787692485 | 23.33° C | 67% | 1015.6 hPa | - | - | - | - |
| 1787691885 | 23.33° C | 69% | 1015.5 hPa | - | - | - | - |
| 1787691286 | 23.33° C | 69% | 1015.6 hPa | - | - | - | - |
| 1787690686 | 23.89° C | 67% | 1015.4 hPa | - | - | - | - |
| 1787690086 | 23.89° C | 68% | 1015.1 hPa | - | - | - | - |
* Rain since midnight (hover to see other rain measurements)
** Current wind speed in m/s (hover to see current wind gust speed)